,,,PA_Meas_PMT16A,,PR_Meas_QMR101_102,,RH_Meas_QMH101,,SR_Meas_QMS101,,TA_Meas_QMH101,,GenWind,,GenWind,
date,time,status,PA,status,PR,status,RH,status,SR,status,TA,status,DirAvg,status,SpdAvg,
2011-07-17, 00:00:04,VALID,1000.45,VALID,0,VALID,89.4344,VALID,0,VALID,22.7842,VALID,171,VALID,0.144141,
2011-07-17, 00:01:04,VALID,1000.47,VALID,0,VALID,89.2589,VALID,0,VALID,22.825,VALID,171,VALID,0.665625,
2011-07-17, 00:02:04,VALID,1000.46,VALID,0,VALID,88.9995,VALID,0,VALID,22.7647,VALID,343,VALID,0.814453,
2011-07-17, 00:03:04,VALID,1000.45,VALID,0,VALID,88.8469,VALID,0,VALID,22.7062,VALID,343,VALID,0.650391,
2011-07-17, 00:04:04,VALID,1000.43,VALID,0,VALID,88.9461,VALID,0,VALID,22.7079,VALID,343,VALID,0.698828,
2011-07-17, 00:05:04,VALID,1000.45,VALID,0,VALID,88.8469,VALID,0,VALID,22.6477,VALID,343,VALID,0.557813,
2011-07-17, 00:06:04,VALID,1000.43,VALID,0,VALID,88.7401,VALID,0,VALID,22.5892,VALID,343,VALID,0.404687,
2011-07-17, 00:07:04,VALID,1000.41,VALID,0,VALID,89.0606,VALID,0,VALID,22.5909,VALID,343,VALID,0.814453,
2011-07-17, 00:08:04,VALID,1000.41,VALID,0,VALID,89.2971,VALID,0,VALID,22.5892,VALID,343,VALID,0.39375,
2011-07-17, 00:09:04,VALID,1000.4,VALID,0,VALID,89.32,VALID,0,VALID,22.5696,VALID,343,VALID,0,
2011-07-17, 00:10:04,VALID,1000.36,VALID,0,VALID,89.114,VALID,0,VALID,22.5714,VALID,343,VALID,0.138672,
2011-07-17, 00:11:04,VALID,1000.36,VALID,0,VALID,89.2208,VALID,0,VALID,22.5111,VALID,343,VALID,0.506641,
2011-07-17, 00:12:04,VALID,1000.38,VALID,0,VALID,89.3505,VALID,0,VALID,22.4916,VALID,92,VALID,1.66016,
2011-07-17, 00:13:04,VALID,1000.35,VALID,0,VALID,89.6328,VALID,0,VALID,22.4526,VALID,96,VALID,1.98047,
2011-07-17, 00:14:04,VALID,1000.38,VALID,0,VALID,90.0371,VALID,0,VALID,22.4916,VALID,102,VALID,1.24453,
2011-07-17, 00:15:04,VALID,1000.35,VALID,0,VALID,90.1516,VALID,0,VALID,22.4916,VALID,102,VALID,0.926953,
2011-07-17, 00:16:04,VALID,1000.37,VALID,0,VALID,90.2203,VALID,0,VALID,22.4916,VALID,102,VALID,0.748438,
2011-07-17, 00:17:04,VALID,1000.32,VALID,0,VALID,90.3118,VALID,0,VALID,22.4916,VALID,102,VALID,0.2875,
2011-07-17, 00:18:04,VALID,1000.32,VALID,0,VALID,90.3576,VALID,0,VALID,22.4916,VALID,102,VALID,0.240234,
2011-07-17, 00:19:04,VALID,1000.3,VALID,0,VALID,90.2813,VALID,0,VALID,22.4721,VALID,102,VALID,0,
2011-07-17, 00:20:04,VALID,1000.32,VALID,0,VALID,90.2508,VALID,0,VALID,22.4526,VALID,102,VALID,0,
2011-07-17, 00:21:04,VALID,1000.32,VALID,0,VALID,90.2203,VALID,0,VALID,22.4331,VALID,102,VALID,0,
2011-07-17, 00:22:04,VALID,1000.33,VALID,0,VALID,90.2431,VALID,0,VALID,22.4136,VALID,102,VALID,0,
2011-07-17, 00:23:04,VALID,1000.33,VALID,0,VALID,90.3194,VALID,0,VALID,22.4136,VALID,102,VALID,0.0421875,
2011-07-17, 00:24:04,VALID,1000.35,VALID,0,VALID,90.4186,VALID,0,VALID,22.4136,VALID,102,VALID,0.533203,
2011-07-17, 00:25:04,VALID,1000.31,VALID,0,VALID,90.4644,VALID,0,VALID,22.3941,VALID,102,VALID,0.493359,
2011-07-17, 00:26:04,VALID,1000.32,VALID,0,VALID,90.411,VALID,0,VALID,22.3746,VALID,102,VALID,0.361719,
2011-07-17, 00:27:04,VALID,1000.32,VALID,0,VALID,90.3728,VALID,0,VALID,22.3551,VALID,102,VALID,0.273438,
2011-07-17, 00:28:04,VALID,1000.31,VALID,0,VALID,90.472,VALID,0,VALID,22.3746,VALID,102,VALID,0.482422,
2011-07-17, 00:29:04,VALID,1000.34,VALID,0,VALID,90.6246,VALID,0,VALID,22.4136,VALID,102,VALID,0.337109,
2011-07-17, 00:30:04,VALID,1000.31,VALID,0,VALID,90.6399,VALID,0,VALID,22.4526,VALID,102,VALID,0.146484,
2011-07-17, 00:31:04,VALID,1000.32,VALID,0,VALID,90.5712,VALID,0,VALID,22.4526,VALID,102,VALID,0,
2011-07-17, 00:32:04,VALID,1000.26,VALID,0,VALID,90.5254,VALID,0,VALID,22.4526,VALID,102,VALID,0.00078125,
2011-07-17, 00:33:04,VALID,1000.3,VALID,0,VALID,90.4186,VALID,0,VALID,22.4526,VALID,102,VALID,0.16875,
2011-07-17, 00:34:04,VALID,1000.28,VALID,0,VALID,90.3805,VALID,0,VALID,22.4331,VALID,102,VALID,0.491016,
2011-07-17, 00:35:04,VALID,1000.28,VALID,0,VALID,90.3271,VALID,0,VALID,22.4136,VALID,303,VALID,0.932813,
2011-07-17, 00:36:04,VALID,1000.24,VALID,0,VALID,90.2966,VALID,0,VALID,22.3941,VALID,303,VALID,0.736328,
2011-07-17, 00:37:04,VALID,1000.24,VALID,0,VALID,90.3118,VALID,0,VALID,22.3746,VALID,303,VALID,0.360547,
2011-07-17, 00:38:04,VALID,1000.24,VALID,0,VALID,90.3042,VALID,0,VALID,22.3551,VALID,303,VALID,0.13125,
2011-07-17, 00:39:04,VALID,1000.21,VALID,0,VALID,90.2584,VALID,0,VALID,22.3161,VALID,303,VALID,0.240234,
2011-07-17, 00:40:04,VALID,1000.2,VALID,0,VALID,90.2813,VALID,0,VALID,22.2771,VALID,303,VALID,0.307422,
2011-07-17, 00:41:04,VALID,1000.16,VALID,0,VALID,90.4644,VALID,0,VALID,22.2771,VALID,303,VALID,0.215234,
2011-07-17, 00:42:04,VALID,1000.16,VALID,0,VALID,90.6399,VALID,0,VALID,22.2771,VALID,303,VALID,0.239453,
2011-07-17, 00:43:04,VALID,1000.13,VALID,0,VALID,90.7085,VALID,0,VALID,22.3161,VALID,303,VALID,0.341016,
2011-07-17, 00:44:04,VALID,1000.11,VALID,0,VALID,90.6704,VALID,0,VALID,22.2966,VALID,303,VALID,0.776563,
2011-07-17, 00:45:04,VALID,1000.11,VALID,0,VALID,90.5254,VALID,0,VALID,22.3161,VALID,41,VALID,1.16992,
2011-07-17, 00:46:04,VALID,1000.12,VALID,0,VALID,90.2279,VALID,0,VALID,22.2983,VALID,41,VALID,1.08008,
2011-07-17, 00:47:04,VALID,1000.14,VALID,0,VALID,90.2126,VALID,0,VALID,22.2381,VALID,49,VALID,1.13594,
2011-07-17, 00:48:04,VALID,1000.15,VALID,0,VALID,90.3194,VALID,0,VALID,22.2186,VALID,65,VALID,1.12109,
2011-07-17, 00:49:04,VALID,1000.14,VALID,0,VALID,90.3728,VALID,0,VALID,22.199,VALID,65,VALID,1.08125,
2011-07-17, 00:50:04,VALID,1000.12,VALID,0,VALID,90.4415,VALID,0,VALID,22.2007,VALID,52,VALID,0.769141,
2011-07-17, 00:51:04,VALID,1000.12,VALID,0,VALID,90.4186,VALID,0,VALID,22.2007,VALID,51,VALID,0.484375,
2011-07-17, 00:52:04,VALID,1000.11,VALID,0,VALID,90.3805,VALID,0,VALID,22.121,VALID,51,VALID,0.411719,
2011-07-17, 00:53:04,VALID,1000.1,VALID,0,VALID,90.3957,VALID,0,VALID,22.082,VALID,51,VALID,0.441797,
2011-07-17, 00:54:04,VALID,1000.1,VALID,0,VALID,90.5026,VALID,0,VALID,22.0625,VALID,51,VALID,0.873438,
2011-07-17, 00:55:04,VALID,1000.1,VALID,0,VALID,90.7085,VALID,0,VALID,22.0837,VALID,51,VALID,1.31094,
2011-07-17, 00:56:04,VALID,1000.1,VALID,0,VALID,90.9069,VALID,0,VALID,22.082,VALID,47,VALID,1.5168,
2011-07-17, 00:57:04,VALID,1000.11,VALID,0,VALID,90.968,VALID,0,VALID,22.1032,VALID,44,VALID,1.48047,
2011-07-17, 00:58:04,VALID,1000.1,VALID,0,VALID,91.0061,VALID,0,VALID,22.082,VALID,43,VALID,1.30391,
2011-07-17, 00:59:04,VALID,1000.12,VALID,0,VALID,90.9909,VALID,0,VALID,22.082,VALID,40,VALID,0.917188,
2011-07-17, 01:00:04,VALID,1000.1,VALID,0,VALID,91.0214,VALID,0,VALID,22.1227,VALID,35,VALID,0.780859,
2011-07-17, 01:01:04,VALID,1000.07,VALID,0,VALID,90.9527,VALID,0,VALID,22.1032,VALID,7,VALID,0.708203,
2011-07-17, 01:02:04,VALID,1000.1,VALID,0,VALID,90.9374,VALID,0,VALID,22.0837,VALID,359,VALID,0.708594,
2011-07-17, 01:03:04,VALID,1000.06,VALID,0,VALID,90.9527,VALID,0,VALID,22.0837,VALID,359,VALID,0.650391,
2011-07-17, 01:04:04,VALID,1000.02,VALID,0,VALID,90.968,VALID,0,VALID,22.0625,VALID,359,VALID,0.595312,
2011-07-17, 01:05:04,VALID,1000.01,VALID,0,VALID,90.9603,VALID,0,VALID,22.0837,VALID,359,VALID,0.375391,
2011-07-17, 01:06:04,VALID,1000.03,VALID,0,VALID,90.8917,VALID,0,VALID,22.1032,VALID,359,VALID,0.361328,
2011-07-17, 01:07:04,VALID,1000.04,VALID,0,VALID,90.7849,VALID,0,VALID,22.1032,VALID,359,VALID,0.601172,
2011-07-17, 01:08:04,VALID,1000.04,VALID,0,VALID,90.7009,VALID,0,VALID,22.0837,VALID,47,VALID,0.542578,
2011-07-17, 01:09:04,VALID,1000.04,VALID,0,VALID,90.7467,VALID,0,VALID,22.0625,VALID,47,VALID,0.656641,
2011-07-17, 01:10:04,VALID,1000.01,VALID,0,VALID,90.7696,VALID,0,VALID,22.0837,VALID,47,VALID,0.647266,
2011-07-17, 01:11:04,VALID,1000.01,VALID,0,VALID,90.7925,VALID,0,VALID,22.0837,VALID,47,VALID,0.622656,
2011-07-17, 01:12:04,VALID,1000,VALID,0,VALID,90.8154,VALID,0,VALID,22.0837,VALID,47,VALID,0.658984,
2011-07-17, 01:13:04,VALID,999.966,VALID,0,VALID,90.7772,VALID,0,VALID,22.0837,VALID,47,VALID,0.852734,
2011-07-17, 01:14:04,VALID,999.965,VALID,0,VALID,90.7162,VALID,0,VALID,22.0625,VALID,54,VALID,0.845703,
2011-07-17, 01:15:04,VALID,999.967,VALID,0,VALID,90.6933,VALID,0,VALID,22.0625,VALID,66,VALID,0.837891,
2011-07-17, 01:16:04,VALID,999.999,VALID,0,VALID,90.7391,VALID,0,VALID,22.1032,VALID,80,VALID,0.819141,
2011-07-17, 01:17:04,VALID,999.993,VALID,0,VALID,90.8077,VALID,0,VALID,22.1227,VALID,90,VALID,0.922266,
2011-07-17, 01:18:04,VALID,999.965,VALID,0,VALID,90.8611,VALID,0,VALID,22.1032,VALID,90,VALID,0.505469,
2011-07-17, 01:19:04,VALID,999.974,VALID,0,VALID,90.9146,VALID,0,VALID,22.0625,VALID,90,VALID,0.3,
2011-07-17, 01:20:04,VALID,999.928,VALID,0,VALID,90.968,VALID,0,VALID,22.0837,VALID,90,VALID,0.2125,
2011-07-17, 01:21:04,VALID,999.934,VALID,0,VALID,91.0366,VALID,0,VALID,22.043,VALID,90,VALID,0.207031,
2011-07-17, 01:22:04,VALID,999.93,VALID,0,VALID,91.0824,VALID,0,VALID,22.0235,VALID,90,VALID,0.247656,
2011-07-17, 01:23:04,VALID,999.914,VALID,0,VALID,91.1358,VALID,0,VALID,22.0235,VALID,90,VALID,0.369531,
2011-07-17, 01:24:04,VALID,999.886,VALID,0,VALID,91.1816,VALID,0,VALID,22.004,VALID,90,VALID,0.544531,
2011-07-17, 01:25:04,VALID,999.898,VALID,0,VALID,91.2655,VALID,0,VALID,22.0252,VALID,90,VALID,0.487109,
2011-07-17, 01:26:04,VALID,999.904,VALID,0,VALID,91.3037,VALID,0,VALID,21.9845,VALID,90,VALID,0.519141,
2011-07-17, 01:27:04,VALID,999.834,VALID,0,VALID,91.38,VALID,0,VALID,21.9845,VALID,80,VALID,0.666406,
2011-07-17, 01:28:04,VALID,999.828,VALID,0,VALID,91.4563,VALID,0,VALID,21.9845,VALID,41,VALID,0.875781,
2011-07-17, 01:29:04,VALID,999.801,VALID,0,VALID,91.5554,VALID,0,VALID,21.9845,VALID,41,VALID,1.05352,
2011-07-17, 01:30:04,VALID,999.791,VALID,0,VALID,91.6623,VALID,0,VALID,22.0057,VALID,41,VALID,1.09258,
2011-07-17, 01:31:04,VALID,999.83,VALID,0,VALID,91.6317,VALID,0,VALID,21.9862,VALID,41,VALID,1.10898,
2011-07-17, 01:32:04,VALID,999.858,VALID,0,VALID,91.6165,VALID,0,VALID,21.965,VALID,41,VALID,1.06836,
2011-07-17, 01:33:04,VALID,999.846,VALID,0,VALID,91.6088,VALID,0,VALID,21.9862,VALID,53,VALID,1.08633,
2011-07-17, 01:34:04,VALID,999.817,VALID,0,VALID,91.5554,VALID,0,VALID,21.9667,VALID,53,VALID,1.10547,
2011-07-17, 01:35:04,VALID,999.786,VALID,0,VALID,91.6012,VALID,0,VALID,21.965,VALID,53,VALID,1.08867,
2011-07-17, 01:36:04,VALID,999.761,VALID,0,VALID,91.647,VALID,0,VALID,21.965,VALID,53,VALID,0.892969,
2011-07-17, 01:37:04,VALID,999.743,VALID,0,VALID,91.6088,VALID,0,VALID,21.9862,VALID,53,VALID,0.582812,
2011-07-17, 01:38:04,VALID,999.69,VALID,0,VALID,91.6088,VALID,0,VALID,22.0057,VALID,25,VALID,0.811719,
2011-07-17, 01:39:04,VALID,999.67,VALID,0,VALID,91.5936,VALID,0,VALID,21.965,VALID,25,VALID,0.826563,
2011-07-17, 01:40:04,VALID,999.673,VALID,0,VALID,91.6012,VALID,0,VALID,21.9667,VALID,25,VALID,0.692187,
2011-07-17, 01:41:04,VALID,999.652,VALID,0,VALID,91.5936,VALID,0,VALID,21.9472,VALID,25,VALID,0.733594,
2011-07-17, 01:42:04,VALID,999.686,VALID,0,VALID,91.6317,VALID,0,VALID,21.9277,VALID,37,VALID,0.79375,
2011-07-17, 01:43:04,VALID,999.651,VALID,0,VALID,91.6928,VALID,0,VALID,21.887,VALID,48,VALID,0.928906,
2011-07-17, 01:44:04,VALID,999.664,VALID,0,VALID,91.7614,VALID,0,VALID,21.887,VALID,55,VALID,1.12539,
2011-07-17, 01:45:04,VALID,999.63,VALID,0,VALID,91.7996,VALID,0,VALID,21.9082,VALID,63,VALID,1.1125,
2011-07-17, 01:46:04,VALID,999.63,VALID,0,VALID,91.8225,VALID,0,VALID,21.8887,VALID,63,VALID,0.825,
2011-07-17, 01:47:04,VALID,999.657,VALID,0,VALID,91.8148,VALID,0,VALID,21.8675,VALID,52,VALID,0.771094,
2011-07-17, 01:48:04,VALID,999.642,VALID,0,VALID,91.8072,VALID,0,VALID,21.8285,VALID,52,VALID,0.619922,
2011-07-17, 01:49:04,VALID,999.642,VALID,0,VALID,91.7996,VALID,0,VALID,21.809,VALID,52,VALID,0.434766,
2011-07-17, 01:50:04,VALID,999.61,VALID,0,VALID,91.8072,VALID,0,VALID,21.8106,VALID,52,VALID,0.389453,
2011-07-17, 01:51:04,VALID,999.662,VALID,0,VALID,91.853,VALID,0,VALID,21.7895,VALID,52,VALID,0.505859,
2011-07-17, 01:52:04,VALID,999.664,VALID,0,VALID,91.8835,VALID,0,VALID,21.77,VALID,52,VALID,0.565234,
2011-07-17, 01:53:04,VALID,999.639,VALID,0,VALID,91.9064,VALID,0,VALID,21.77,VALID,52,VALID,0.235547,
2011-07-17, 01:54:04,VALID,999.661,VALID,0,VALID,91.9445,VALID,0,VALID,21.7716,VALID,52,VALID,0.376953,
2011-07-17, 01:55:04,VALID,999.655,VALID,0,VALID,91.9751,VALID,0,VALID,21.7505,VALID,52,VALID,0.443359,
2011-07-17, 01:56:04,VALID,999.634,VALID,0,VALID,92.0132,VALID,0,VALID,21.731,VALID,44,VALID,0.523828,
2011-07-17, 01:57:04,VALID,999.614,VALID,0,VALID,92.059,VALID,0,VALID,21.7521,VALID,39,VALID,0.687891,
2011-07-17, 01:58:04,VALID,999.615,VALID,0,VALID,92.0819,VALID,0,VALID,21.731,VALID,39,VALID,0.731641,
2011-07-17, 01:59:04,VALID,999.59,VALID,0,VALID,92.1277,VALID,0,VALID,21.7505,VALID,39,VALID,0.735547,
2011-07-17, 02:00:04,VALID,999.619,VALID,0,VALID,92.12,VALID,0,VALID,21.731,VALID,39,VALID,0.579297,
2011-07-17, 02:01:04,VALID,999.615,VALID,0,VALID,92.1048,VALID,0,VALID,21.7115,VALID,23,VALID,1.13359,
2011-07-17, 02:02:04,VALID,999.618,VALID,0,VALID,92.1429,VALID,0,VALID,21.692,VALID,10,VALID,1.33281,
2011-07-17, 02:03:04,VALID,999.62,VALID,0,VALID,92.1506,VALID,0,VALID,21.653,VALID,9,VALID,1.28125,
2011-07-17, 02:04:04,VALID,999.605,VALID,0,VALID,92.1353,VALID,0,VALID,21.6335,VALID,9,VALID,0.904297,
2011-07-17, 02:05:04,VALID,999.586,VALID,0,VALID,92.1429,VALID,0,VALID,21.6335,VALID,7,VALID,1.09102,
2011-07-17, 02:06:04,VALID,999.613,VALID,0,VALID,92.1811,VALID,0,VALID,21.6335,VALID,2,VALID,0.904297,
2011-07-17, 02:07:04,VALID,999.59,VALID,0,VALID,92.1658,VALID,0,VALID,21.6725,VALID,357,VALID,0.716797,
2011-07-17, 02:08:04,VALID,999.596,VALID,0,VALID,92.12,VALID,0,VALID,21.692,VALID,1,VALID,0.672266,
2011-07-17, 02:09:04,VALID,999.572,VALID,0,VALID,92.0132,VALID,0,VALID,21.6725,VALID,9,VALID,0.889453,
2011-07-17, 02:10:04,VALID,999.554,VALID,0,VALID,91.8683,VALID,0,VALID,21.6725,VALID,9,VALID,0.672266,
2011-07-17, 02:11:04,VALID,999.575,VALID,0,VALID,91.7843,VALID,0,VALID,21.6513,VALID,9,VALID,0.310937,
2011-07-17, 02:12:04,VALID,999.524,VALID,0,VALID,91.7157,VALID,0,VALID,21.6725,VALID,9,VALID,0.204297,
2011-07-17, 02:13:04,VALID,999.475,VALID,0,VALID,91.6012,VALID,0,VALID,21.653,VALID,9,VALID,0.171875,
2011-07-17, 02:14:04,VALID,999.475,VALID,0,VALID,91.5707,VALID,0,VALID,21.653,VALID,9,VALID,0,
2011-07-17, 02:15:04,VALID,999.444,VALID,0,VALID,91.5783,VALID,0,VALID,21.692,VALID,9,VALID,0,
2011-07-17, 02:16:04,VALID,999.465,VALID,0,VALID,91.586,VALID,0,VALID,21.7115,VALID,9,VALID,0,
2011-07-17, 02:17:04,VALID,999.471,VALID,0,VALID,91.5554,VALID,0,VALID,21.6725,VALID,64,VALID,0.506641,
2011-07-17, 02:18:04,VALID,999.477,VALID,0,VALID,91.4639,VALID,0,VALID,21.653,VALID,120,VALID,1.34258,
2011-07-17, 02:19:04,VALID,999.494,VALID,0,VALID,91.235,VALID,0,VALID,21.5945,VALID,114,VALID,1.54453,
2011-07-17, 02:20:04,VALID,999.495,VALID,0,VALID,91.2426,VALID,0,VALID,21.614,VALID,117,VALID,1.40781,
2011-07-17, 02:21:04,VALID,999.485,VALID,0,VALID,91.3342,VALID,0,VALID,21.614,VALID,124,VALID,1.02578,
2011-07-17, 02:22:04,VALID,999.494,VALID,0,VALID,91.3952,VALID,0,VALID,21.6335,VALID,114,VALID,0.734766,
2011-07-17, 02:23:04,VALID,999.477,VALID,0,VALID,91.4639,VALID,0,VALID,21.6725,VALID,114,VALID,0.966406,
2011-07-17, 02:24:04,VALID,999.505,VALID,0,VALID,91.4791,VALID,0,VALID,21.7326,VALID,114,VALID,0.939453,
2011-07-17, 02:25:04,VALID,999.49,VALID,0,VALID,91.4791,VALID,0,VALID,21.731,VALID,111,VALID,0.728516,
2011-07-17, 02:26:04,VALID,999.506,VALID,0,VALID,91.5173,VALID,0,VALID,21.77,VALID,111,VALID,0.274219,
2011-07-17, 02:27:04,VALID,999.495,VALID,0,VALID,91.4563,VALID,0,VALID,21.77,VALID,111,VALID,0.0875,
2011-07-17, 02:28:04,VALID,999.492,VALID,0,VALID,91.38,VALID,0,VALID,21.7505,VALID,111,VALID,0.387109,
2011-07-17, 02:29:04,VALID,999.466,VALID,0,VALID,91.3418,VALID,0,VALID,21.7505,VALID,111,VALID,0.363281,
2011-07-17, 02:30:04,VALID,999.46,VALID,0,VALID,91.3189,VALID,0,VALID,21.7505,VALID,111,VALID,0.501562,
2011-07-17, 02:31:04,VALID,999.448,VALID,0,VALID,91.3342,VALID,0,VALID,21.731,VALID,111,VALID,0.424219,
2011-07-17, 02:32:04,VALID,999.41,VALID,0,VALID,91.3189,VALID,0,VALID,21.731,VALID,111,VALID,0.447266,
2011-07-17, 02:33:04,VALID,999.434,VALID,0,VALID,91.3418,VALID,0,VALID,21.7326,VALID,111,VALID,0.524609,
2011-07-17, 02:34:04,VALID,999.404,VALID,0,VALID,91.3723,VALID,0,VALID,21.7115,VALID,111,VALID,0.439063,
2011-07-17, 02:35:04,VALID,999.357,VALID,0,VALID,91.3876,VALID,0,VALID,21.7115,VALID,111,VALID,0.540234,
2011-07-17, 02:36:04,VALID,999.379,VALID,0,VALID,91.3647,VALID,0,VALID,21.692,VALID,83,VALID,0.591797,
2011-07-17, 02:37:04,VALID,999.343,VALID,0,VALID,91.296,VALID,0,VALID,21.6335,VALID,83,VALID,0.55,
2011-07-17, 02:38:04,VALID,999.377,VALID,0,VALID,91.3266,VALID,0,VALID,21.653,VALID,38,VALID,0.907422,
2011-07-17, 02:39:04,VALID,999.335,VALID,0,VALID,91.3037,VALID,0,VALID,21.6335,VALID,33,VALID,0.985547,
2011-07-17, 02:40:04,VALID,999.338,VALID,0,VALID,91.2274,VALID,0,VALID,21.614,VALID,33,VALID,1.03477,
2011-07-17, 02:41:04,VALID,999.336,VALID,0,VALID,91.174,VALID,0,VALID,21.5945,VALID,23,VALID,1.00781,
2011-07-17, 02:42:04,VALID,999.368,VALID,0,VALID,91.1206,VALID,0,VALID,21.5766,VALID,22,VALID,0.43125,
2011-07-17, 02:43:04,VALID,999.349,VALID,0,VALID,91.1358,VALID,0,VALID,21.5165,VALID,42,VALID,0.946484,
2011-07-17, 02:44:04,VALID,999.348,VALID,0,VALID,91.235,VALID,0,VALID,21.497,VALID,52,VALID,1.0207,
2011-07-17, 02:45:04,VALID,999.326,VALID,0,VALID,91.4181,VALID,0,VALID,21.5376,VALID,66,VALID,0.969922,
2011-07-17, 02:46:04,VALID,999.313,VALID,0,VALID,91.5478,VALID,0,VALID,21.5571,VALID,73,VALID,1.12539,
2011-07-17, 02:47:04,VALID,999.3,VALID,0,VALID,91.7004,VALID,0,VALID,21.536,VALID,73,VALID,1.11406,
2011-07-17, 02:48:04,VALID,999.304,VALID,0,VALID,91.7843,VALID,0,VALID,21.575,VALID,73,VALID,0.980078,
2011-07-17, 02:49:04,VALID,999.295,VALID,0,VALID,91.8454,VALID,0,VALID,21.575,VALID,73,VALID,0.817969,
2011-07-17, 02:50:04,VALID,999.26,VALID,0,VALID,91.8835,VALID,0,VALID,21.5945,VALID,73,VALID,0.693359,
2011-07-17, 02:51:04,VALID,999.232,VALID,0,VALID,91.914,VALID,0,VALID,21.6335,VALID,73,VALID,0.9125,
2011-07-17, 02:52:04,VALID,999.208,VALID,0,VALID,91.9064,VALID,0,VALID,21.6546,VALID,73,VALID,0.575,
2011-07-17, 02:53:04,VALID,999.202,VALID,0,VALID,91.8911,VALID,0,VALID,21.6741,VALID,73,VALID,0.4125,
2011-07-17, 02:54:04,VALID,999.163,VALID,0,VALID,91.8148,VALID,0,VALID,21.6351,VALID,73,VALID,0.427344,
2011-07-17, 02:55:04,VALID,999.14,VALID,0,VALID,91.6928,VALID,0,VALID,21.5961,VALID,73,VALID,0.644922,
2011-07-17, 02:56:04,VALID,999.161,VALID,0,VALID,91.6241,VALID,0,VALID,21.536,VALID,73,VALID,0.413281,
2011-07-17, 02:57:04,VALID,999.142,VALID,0,VALID,91.6088,VALID,0,VALID,21.5165,VALID,73,VALID,0.351953,
2011-07-17, 02:58:04,VALID,999.148,VALID,0,VALID,91.7004,VALID,0,VALID,21.5555,VALID,73,VALID,0.326953,
2011-07-17, 02:59:04,VALID,999.123,VALID,0,VALID,91.7996,VALID,0,VALID,21.5555,VALID,73,VALID,0.557422,
2011-07-17, 03:00:04,VALID,999.079,VALID,0,VALID,91.8759,VALID,0,VALID,21.5961,VALID,73,VALID,0.642969,
2011-07-17, 03:01:04,VALID,999.066,VALID,0,VALID,91.8835,VALID,0,VALID,21.6351,VALID,5,VALID,0.737109,
2011-07-17, 03:02:04,VALID,999.094,VALID,0,VALID,91.8759,VALID,0,VALID,21.6546,VALID,350,VALID,0.539844,
2011-07-17, 03:03:04,VALID,999.067,VALID,0,VALID,91.8225,VALID,0,VALID,21.6741,VALID,350,VALID,0.558984,
2011-07-17, 03:04:04,VALID,999.053,VALID,0,VALID,91.8072,VALID,0,VALID,21.6741,VALID,350,VALID,0.28125,
2011-07-17, 03:05:04,VALID,999.066,VALID,0,VALID,91.7691,VALID,0,VALID,21.6936,VALID,350,VALID,0.374609,
2011-07-17, 03:06:04,VALID,999.04,VALID,0,VALID,91.7309,VALID,0,VALID,21.692,VALID,350,VALID,0.0585938,
2011-07-17, 03:07:04,VALID,999.056,VALID,0,VALID,91.6623,VALID,0,VALID,21.6936,VALID,350,VALID,0,
2011-07-17, 03:08:04,VALID,999.06,VALID,0,VALID,91.5936,VALID,0,VALID,21.6741,VALID,350,VALID,0.372656,
2011-07-17, 03:09:04,VALID,999.072,VALID,0,VALID,91.4944,VALID,0,VALID,21.6546,VALID,350,VALID,0.359766,
2011-07-17, 03:10:04,VALID,999.069,VALID,0,VALID,91.4028,VALID,0,VALID,21.5945,VALID,350,VALID,0.474219,
2011-07-17, 03:11:04,VALID,999.054,VALID,0,VALID,91.296,VALID,0,VALID,21.5555,VALID,350,VALID,0.803516,
2011-07-17, 03:12:04,VALID,999.036,VALID,0,VALID,91.38,VALID,0,VALID,21.536,VALID,350,VALID,0.865625,
2011-07-17, 03:13:04,VALID,999.022,VALID,0,VALID,91.4257,VALID,0,VALID,21.5766,VALID,13,VALID,0.885156,
2011-07-17, 03:14:04,VALID,999.027,VALID,0,VALID,91.4639,VALID,0,VALID,21.5165,VALID,13,VALID,0.823828,
2011-07-17, 03:15:04,VALID,999.045,VALID,0,VALID,91.5326,VALID,0,VALID,21.536,VALID,34,VALID,0.820703,
2011-07-17, 03:16:04,VALID,999.021,VALID,0,VALID,91.502,VALID,0,VALID,21.5181,VALID,36,VALID,0.799219,
2011-07-17, 03:17:04,VALID,999.018,VALID,0,VALID,91.4868,VALID,0,VALID,21.4775,VALID,55,VALID,1.49102,
2011-07-17, 03:18:04,VALID,998.982,VALID,0,VALID,91.5783,VALID,0,VALID,21.458,VALID,55,VALID,1.57578,
2011-07-17, 03:19:04,VALID,998.988,VALID,0,VALID,91.708,VALID,0,VALID,21.5165,VALID,58,VALID,1.38047,
2011-07-17, 03:20:04,VALID,999.009,VALID,0,VALID,91.8225,VALID,0,VALID,21.5165,VALID,63,VALID,1.06289,
2011-07-17, 03:21:04,VALID,998.969,VALID,0,VALID,91.8454,VALID,0,VALID,21.5165,VALID,64,VALID,1.1,
2011-07-17, 03:22:04,VALID,998.986,VALID,0,VALID,91.853,VALID,0,VALID,21.497,VALID,76,VALID,1.21875,
2011-07-17, 03:23:04,VALID,998.971,VALID,0,VALID,91.853,VALID,0,VALID,21.5165,VALID,80,VALID,1.37227,
2011-07-17, 03:24:04,VALID,998.972,VALID,0,VALID,91.7996,VALID,0,VALID,21.5165,VALID,104,VALID,0.942187,
2011-07-17, 03:25:04,VALID,998.951,VALID,0,VALID,91.792,VALID,0,VALID,21.5376,VALID,101,VALID,1.52813,
2011-07-17, 03:26:04,VALID,998.94,VALID,0,VALID,91.7614,VALID,0,VALID,21.536,VALID,98,VALID,1.37422,
2011-07-17, 03:27:04,VALID,998.951,VALID,0,VALID,91.7691,VALID,0,VALID,21.5555,VALID,108,VALID,1.30703,
2011-07-17, 03:28:04,VALID,998.936,VALID,0,VALID,91.8301,VALID,0.112286,VALID,21.575,VALID,106,VALID,1.36133,
2011-07-17, 03:29:04,VALID,998.936,VALID,0,VALID,91.8911,VALID,0,VALID,21.5945,VALID,123,VALID,1.2707,
2011-07-17, 03:30:04,VALID,998.944,VALID,0,VALID,91.9369,VALID,0,VALID,21.653,VALID,125,VALID,1.32344,
2011-07-17, 03:31:04,VALID,998.952,VALID,0,VALID,91.9751,VALID,0,VALID,21.6725,VALID,133,VALID,1.22969,
2011-07-17, 03:32:04,VALID,998.96,VALID,0,VALID,91.9522,VALID,0,VALID,21.7326,VALID,133,VALID,1.22734,
2011-07-17, 03:33:04,VALID,998.974,VALID,0,VALID,91.8835,VALID,0,VALID,21.731,VALID,147,VALID,0.844141,
2011-07-17, 03:34:04,VALID,998.968,VALID,0,VALID,91.7843,VALID,0,VALID,21.7505,VALID,149,VALID,0.903516,
2011-07-17, 03:35:04,VALID,998.99,VALID,0,VALID,91.7462,VALID,0,VALID,21.7895,VALID,140,VALID,0.880078,
2011-07-17, 03:36:04,VALID,999.013,VALID,0,VALID,91.6317,VALID,0,VALID,21.848,VALID,129,VALID,0.695313,
2011-07-17, 03:37:04,VALID,999.02,VALID,0,VALID,91.4944,VALID,0,VALID,21.887,VALID,129,VALID,0.273047,
2011-07-17, 03:38:04,VALID,999.033,VALID,0,VALID,91.3418,VALID,0,VALID,21.887,VALID,129,VALID,0.178906,
2011-07-17, 03:39:05,VALID,999.004,VALID,0,VALID,91.1663,VALID,0,VALID,21.887,VALID,129,VALID,0.973437,
2011-07-17, 03:40:05,VALID,998.991,VALID,0,VALID,91.0824,VALID,0,VALID,21.9472,VALID,128,VALID,0.917188,
2011-07-17, 03:41:05,VALID,999.006,VALID,0,VALID,90.9146,VALID,0,VALID,21.9065,VALID,49,VALID,1.16055,
2011-07-17, 03:42:05,VALID,998.998,VALID,0,VALID,90.7009,VALID,0,VALID,21.848,VALID,296,VALID,1.1582,
2011-07-17, 03:43:05,VALID,998.989,VALID,0,VALID,90.7162,VALID,0,VALID,21.848,VALID,286,VALID,1.01133,
2011-07-17, 03:44:05,VALID,998.983,VALID,0,VALID,90.7543,VALID,0,VALID,21.8675,VALID,292,VALID,1.13047,
2011-07-17, 03:45:05,VALID,998.981,VALID,0,VALID,90.7238,VALID,0,VALID,21.9082,VALID,286,VALID,0.783984,
2011-07-17, 03:46:05,VALID,998.996,VALID,0,VALID,90.8154,VALID,0,VALID,22.0447,VALID,231,VALID,0.501562,
2011-07-17, 03:47:05,VALID,998.975,VALID,0,VALID,90.7391,VALID,0,VALID,22.1617,VALID,215,VALID,0.328516,